#datetime,building,power
2024-03-07T00:00:00,mnr,5.74
2024-03-07T00:01:00,mnr,5.78
2024-03-07T00:02:00,mnr,6.24
2024-03-07T00:03:00,mnr,6.44
2024-03-07T00:04:00,mnr,7.09
2024-03-07T00:05:00,mnr,6.61
2024-03-07T00:06:00,mnr,3.84
2024-03-07T00:07:00,mnr,7.52
2024-03-07T00:08:00,mnr,7.51
2024-03-07T00:09:00,mnr,7.31
2024-03-07T00:10:00,mnr,8.20
2024-03-07T00:11:00,mnr,8.34
2024-03-07T00:12:00,mnr,8.14
2024-03-07T00:13:00,mnr,8.55
2024-03-07T00:14:00,mnr,8.30
2024-03-07T00:15:00,mnr,8.35
2024-03-07T00:16:00,mnr,8.26
2024-03-07T00:17:00,mnr,8.26
2024-03-07T00:18:00,mnr,8.78
2024-03-07T00:19:00,mnr,8.18
2024-03-07T00:20:00,mnr,8.74
2024-03-07T00:21:00,mnr,8.60
2024-03-07T00:22:00,mnr,7.87
2024-03-07T00:23:00,mnr,7.92
2024-03-07T00:24:00,mnr,7.47
2024-03-07T00:25:00,mnr,7.38
2024-03-07T00:26:00,mnr,7.24
2024-03-07T00:27:00,mnr,6.78
2024-03-07T00:28:00,mnr,6.87
2024-03-07T00:29:00,mnr,6.78
2024-03-07T00:30:00,mnr,6.83
2024-03-07T00:31:00,mnr,7.37
2024-03-07T00:32:00,mnr,6.64
2024-03-07T00:33:00,mnr,7.27
2024-03-07T00:34:00,mnr,6.61
2024-03-07T00:35:00,mnr,7.29
2024-03-07T00:36:00,mnr,6.64
2024-03-07T00:37:00,mnr,6.64
2024-03-07T00:38:00,mnr,6.81
2024-03-07T00:39:00,mnr,6.84
2024-03-07T00:40:00,mnr,6.82
2024-03-07T00:41:00,mnr,6.78
2024-03-07T00:42:00,mnr,6.78
2024-03-07T00:43:00,mnr,6.14
2024-03-07T00:44:00,mnr,6.70
2024-03-07T00:45:00,mnr,6.13
2024-03-07T00:46:00,mnr,5.87
2024-03-07T00:47:00,mnr,5.81
2024-03-07T00:48:00,mnr,5.86
2024-03-07T00:49:00,mnr,6.32
2024-03-07T00:50:00,mnr,5.91
2024-03-07T00:51:00,mnr,6.38
2024-03-07T00:52:00,mnr,5.90
2024-03-07T00:53:00,mnr,5.87
2024-03-07T00:54:00,mnr,5.94
2024-03-07T00:55:00,mnr,5.94
2024-03-07T00:56:00,mnr,5.83
2024-03-07T00:57:00,mnr,6.57
2024-03-07T00:58:00,mnr,6.59
2024-03-07T00:59:00,mnr,6.65
2024-03-07T01:00:00,mnr,6.60
2024-03-07T01:01:00,mnr,6.60
2024-03-07T01:02:00,mnr,6.63
2024-03-07T01:03:00,mnr,7.41
2024-03-07T01:04:00,mnr,7.33
2024-03-07T01:05:00,mnr,6.91
2024-03-07T01:06:00,mnr,6.86
2024-03-07T01:07:00,mnr,6.87
2024-03-07T01:08:00,mnr,7.32
2024-03-07T01:09:00,mnr,6.75
2024-03-07T01:10:00,mnr,6.85
2024-03-07T01:11:00,mnr,6.73
2024-03-07T01:12:00,mnr,6.74
2024-03-07T01:13:00,mnr,6.17
2024-03-07T01:14:00,mnr,6.15
2024-03-07T01:15:00,mnr,5.88
2024-03-07T01:16:00,mnr,5.89
2024-03-07T01:17:00,mnr,5.41
2024-03-07T01:18:00,mnr,5.02
2024-03-07T01:19:00,mnr,4.88
2024-03-07T01:20:00,mnr,4.74
2024-03-07T01:21:00,mnr,4.63
2024-03-07T01:22:00,mnr,4.62
2024-03-07T01:23:00,mnr,4.62
2024-03-07T01:24:00,mnr,4.67
2024-03-07T01:25:00,mnr,4.66
2024-03-07T01:26:00,mnr,4.65
2024-03-07T01:27:00,mnr,4.69
2024-03-07T01:28:00,mnr,4.69
2024-03-07T01:29:00,mnr,4.81
2024-03-07T01:30:00,mnr,5.33
2024-03-07T01:31:00,mnr,5.51
2024-03-07T01:32:00,mnr,4.63
2024-03-07T01:33:00,mnr,4.81
2024-03-07T01:34:00,mnr,4.71
2024-03-07T01:35:00,mnr,4.69
2024-03-07T01:36:00,mnr,4.70
2024-03-07T01:37:00,mnr,4.65
2024-03-07T01:38:00,mnr,4.59
2024-03-07T01:39:00,mnr,4.64
2024-03-07T01:40:00,mnr,4.71
2024-03-07T01:41:00,mnr,5.27
2024-03-07T01:42:00,mnr,4.78
2024-03-07T01:43:00,mnr,4.16
2024-03-07T01:44:00,mnr,4.18
2024-03-07T01:45:00,mnr,4.69
2024-03-07T01:46:00,mnr,4.93
2024-03-07T01:47:00,mnr,4.66
2024-03-07T01:48:00,mnr,4.74
2024-03-07T01:49:00,mnr,5.30
2024-03-07T01:50:00,mnr,5.31
2024-03-07T01:51:00,mnr,4.68
2024-03-07T01:52:00,mnr,4.67
2024-03-07T01:53:00,mnr,4.77
2024-03-07T01:54:00,mnr,4.99
2024-03-07T01:55:00,mnr,4.75
2024-03-07T01:56:00,mnr,4.80
2024-03-07T01:57:00,mnr,4.71
2024-03-07T01:58:00,mnr,5.73
2024-03-07T01:59:00,mnr,5.36
2024-03-07T02:00:00,mnr,5.09
2024-03-07T02:01:00,mnr,4.72
2024-03-07T02:02:00,mnr,4.70
2024-03-07T02:03:00,mnr,4.72
2024-03-07T02:04:00,mnr,4.67
2024-03-07T02:05:00,mnr,4.69
2024-03-07T02:06:00,mnr,5.95
2024-03-07T02:07:00,mnr,4.65
2024-03-07T02:08:00,mnr,4.69
2024-03-07T02:09:00,mnr,4.65
2024-03-07T02:10:00,mnr,5.25
2024-03-07T02:11:00,mnr,4.66
2024-03-07T02:12:00,mnr,4.62
2024-03-07T02:13:00,mnr,4.60
2024-03-07T02:14:00,mnr,4.62
2024-03-07T02:15:00,mnr,4.60
2024-03-07T02:16:00,mnr,4.96
2024-03-07T02:17:00,mnr,5.23
2024-03-07T02:18:00,mnr,4.58
2024-03-07T02:19:00,mnr,4.61
2024-03-07T02:20:00,mnr,4.60
2024-03-07T02:21:00,mnr,4.62
2024-03-07T02:22:00,mnr,4.58
2024-03-07T02:23:00,mnr,5.50
2024-03-07T02:24:00,mnr,4.87
2024-03-07T02:25:00,mnr,4.87
2024-03-07T02:26:00,mnr,4.84
2024-03-07T02:27:00,mnr,5.27
2024-03-07T02:28:00,mnr,4.76
2024-03-07T02:29:00,mnr,4.82
2024-03-07T02:30:00,mnr,4.78
2024-03-07T02:31:00,mnr,4.76
2024-03-07T02:32:00,mnr,5.15
2024-03-07T02:33:00,mnr,5.25
2024-03-07T02:34:00,mnr,4.79
2024-03-07T02:35:00,mnr,4.88
2024-03-07T02:36:00,mnr,4.80
2024-03-07T02:37:00,mnr,5.61
2024-03-07T02:38:00,mnr,4.49
2024-03-07T02:39:00,mnr,5.07
2024-03-07T02:40:00,mnr,4.46
2024-03-07T02:41:00,mnr,4.46
2024-03-07T02:42:00,mnr,4.37
2024-03-07T02:43:00,mnr,4.30
2024-03-07T02:44:00,mnr,4.29
2024-03-07T02:45:00,mnr,4.30
2024-03-07T02:46:00,mnr,4.29
2024-03-07T02:47:00,mnr,4.91
2024-03-07T02:48:00,mnr,4.29
2024-03-07T02:49:00,mnr,4.27
2024-03-07T02:50:00,mnr,4.96
2024-03-07T02:51:00,mnr,4.17
2024-03-07T02:52:00,mnr,4.35
2024-03-07T02:53:00,mnr,4.10
2024-03-07T02:54:00,mnr,4.08
2024-03-07T02:55:00,mnr,4.15
2024-03-07T02:56:00,mnr,4.30
2024-03-07T02:57:00,mnr,4.16
2024-03-07T02:58:00,mnr,4.13
2024-03-07T02:59:00,mnr,4.22
2024-03-07T03:00:00,mnr,4.35
2024-03-07T03:01:00,mnr,5.01
2024-03-07T03:02:00,mnr,4.84
2024-03-07T03:03:00,mnr,4.41
2024-03-07T03:04:00,mnr,4.34
2024-03-07T03:05:00,mnr,4.29
2024-03-07T03:06:00,mnr,4.53
2024-03-07T03:07:00,mnr,4.34
2024-03-07T03:08:00,mnr,4.38
2024-03-07T03:09:00,mnr,4.35
2024-03-07T03:10:00,mnr,5.51
2024-03-07T03:11:00,mnr,4.47
2024-03-07T03:12:00,mnr,4.30
2024-03-07T03:13:00,mnr,4.31
2024-03-07T03:14:00,mnr,4.33
2024-03-07T03:15:00,mnr,4.31
2024-03-07T03:16:00,mnr,4.33
2024-03-07T03:17:00,mnr,4.32
2024-03-07T03:18:00,mnr,4.71
2024-03-07T03:19:00,mnr,4.79
2024-03-07T03:20:00,mnr,4.77
2024-03-07T03:21:00,mnr,5.37
2024-03-07T03:22:00,mnr,5.44
2024-03-07T03:23:00,mnr,4.79
2024-03-07T03:24:00,mnr,5.26
2024-03-07T03:25:00,mnr,4.98
2024-03-07T03:26:00,mnr,4.85
2024-03-07T03:27:00,mnr,4.79
2024-03-07T03:28:00,mnr,4.76
2024-03-07T03:29:00,mnr,4.73
2024-03-07T03:30:00,mnr,4.71
2024-03-07T03:31:00,mnr,4.68
2024-03-07T03:32:00,mnr,4.90
2024-03-07T03:33:00,mnr,4.65
2024-03-07T03:34:00,mnr,5.01
2024-03-07T03:35:00,mnr,4.60
2024-03-07T03:36:00,mnr,4.68
2024-03-07T03:37:00,mnr,4.69
2024-03-07T03:38:00,mnr,5.17
2024-03-07T03:39:00,mnr,4.74
2024-03-07T03:40:00,mnr,4.75
2024-03-07T03:41:00,mnr,4.76
2024-03-07T03:42:00,mnr,4.67
2024-03-07T03:43:00,mnr,4.74
2024-03-07T03:44:00,mnr,4.71
2024-03-07T03:45:00,mnr,4.66
2024-03-07T03:46:00,mnr,4.71
2024-03-07T03:47:00,mnr,4.71
2024-03-07T03:48:00,mnr,4.74
2024-03-07T03:49:00,mnr,4.76
2024-03-07T03:50:00,mnr,4.91
2024-03-07T03:51:00,mnr,4.84
2024-03-07T03:52:00,mnr,4.97
2024-03-07T03:53:00,mnr,5.47
2024-03-07T03:54:00,mnr,4.82
2024-03-07T03:55:00,mnr,4.78
2024-03-07T03:56:00,mnr,4.78
2024-03-07T03:57:00,mnr,4.73
2024-03-07T03:58:00,mnr,5.22
2024-03-07T03:59:00,mnr,5.37
2024-03-07T04:00:00,mnr,5.02
2024-03-07T04:01:00,mnr,4.75
2024-03-07T04:02:00,mnr,4.98
2024-03-07T04:03:00,mnr,4.80
2024-03-07T04:04:00,mnr,5.48
2024-03-07T04:05:00,mnr,4.67
2024-03-07T04:06:00,mnr,4.62
2024-03-07T04:07:00,mnr,4.62
2024-03-07T04:08:00,mnr,4.67
2024-03-07T04:09:00,mnr,4.75
2024-03-07T04:10:00,mnr,5.40
2024-03-07T04:11:00,mnr,5.00
2024-03-07T04:12:00,mnr,4.36
2024-03-07T04:13:00,mnr,4.55
2024-03-07T04:14:00,mnr,4.32
2024-03-07T04:15:00,mnr,5.37
2024-03-07T04:16:00,mnr,4.33
2024-03-07T04:17:00,mnr,4.67
2024-03-07T04:18:00,mnr,4.39
2024-03-07T04:19:00,mnr,4.48
2024-03-07T04:20:00,mnr,4.38
2024-03-07T04:21:00,mnr,4.72
2024-03-07T04:22:00,mnr,4.33
2024-03-07T04:23:00,mnr,4.40
2024-03-07T04:24:00,mnr,4.38
2024-03-07T04:25:00,mnr,4.67
2024-03-07T04:26:00,mnr,4.42
2024-03-07T04:27:00,mnr,4.98
2024-03-07T04:28:00,mnr,4.31
2024-03-07T04:29:00,mnr,4.71
2024-03-07T04:30:00,mnr,4.28
2024-03-07T04:31:00,mnr,4.31
2024-03-07T04:32:00,mnr,4.23
2024-03-07T04:33:00,mnr,4.23
2024-03-07T04:34:00,mnr,4.31
2024-03-07T04:35:00,mnr,4.20
2024-03-07T04:36:00,mnr,4.22
2024-03-07T04:37:00,mnr,4.47
2024-03-07T04:38:00,mnr,4.26
2024-03-07T04:39:00,mnr,4.15
2024-03-07T04:40:00,mnr,4.27
2024-03-07T04:41:00,mnr,4.85
2024-03-07T04:42:00,mnr,4.14
2024-03-07T04:43:00,mnr,4.20
2024-03-07T04:44:00,mnr,4.78
2024-03-07T04:45:00,mnr,4.15
2024-03-07T04:46:00,mnr,4.96
2024-03-07T04:47:00,mnr,4.23
2024-03-07T04:48:00,mnr,5.00
2024-03-07T04:49:00,mnr,4.30
2024-03-07T04:50:00,mnr,4.29
2024-03-07T04:51:00,mnr,6.10
2024-03-07T04:52:00,mnr,4.68
2024-03-07T04:53:00,mnr,5.25
2024-03-07T04:54:00,mnr,4.82
2024-03-07T04:55:00,mnr,5.34
2024-03-07T04:56:00,mnr,4.67
2024-03-07T04:57:00,mnr,5.32
2024-03-07T04:58:00,mnr,4.70
2024-03-07T04:59:00,mnr,4.74
2024-03-07T05:00:00,mnr,5.75
2024-03-07T05:01:00,mnr,4.71
2024-03-07T05:02:00,mnr,5.36
2024-03-07T05:03:00,mnr,4.80
2024-03-07T05:04:00,mnr,4.71
2024-03-07T05:05:00,mnr,4.76
2024-03-07T05:06:00,mnr,5.02
2024-03-07T05:07:00,mnr,5.36
2024-03-07T05:08:00,mnr,4.90
2024-03-07T05:09:00,mnr,4.99
2024-03-07T05:10:00,mnr,4.85
2024-03-07T05:11:00,mnr,4.97
2024-03-07T05:12:00,mnr,4.86
2024-03-07T05:13:00,mnr,4.88
2024-03-07T05:14:00,mnr,4.77
2024-03-07T05:15:00,mnr,4.76
2024-03-07T05:16:00,mnr,4.68
2024-03-07T05:17:00,mnr,4.98
2024-03-07T05:18:00,mnr,4.71
2024-03-07T05:19:00,mnr,4.67
2024-03-07T05:20:00,mnr,6.02
2024-03-07T05:21:00,mnr,4.72
2024-03-07T05:22:00,mnr,5.36
2024-03-07T05:23:00,mnr,4.72
2024-03-07T05:24:00,mnr,4.81
2024-03-07T05:25:00,mnr,4.99
2024-03-07T05:26:00,mnr,4.73
2024-03-07T05:27:00,mnr,4.68
2024-03-07T05:28:00,mnr,4.67
2024-03-07T05:29:00,mnr,4.89
2024-03-07T05:30:00,mnr,4.70
2024-03-07T05:31:00,mnr,4.73
2024-03-07T05:32:00,mnr,4.71
2024-03-07T05:33:00,mnr,4.73
2024-03-07T05:34:00,mnr,5.37
2024-03-07T05:35:00,mnr,4.68
2024-03-07T05:36:00,mnr,4.96
2024-03-07T05:37:00,mnr,4.95
2024-03-07T05:38:00,mnr,4.98
2024-03-07T05:39:00,mnr,4.94
2024-03-07T05:40:00,mnr,4.89
2024-03-07T05:41:00,mnr,6.08
2024-03-07T05:42:00,mnr,5.00
2024-03-07T05:43:00,mnr,5.02
2024-03-07T05:44:00,mnr,4.48
2024-03-07T05:45:00,mnr,4.51
2024-03-07T05:46:00,mnr,4.45
2024-03-07T05:47:00,mnr,4.48
2024-03-07T05:48:00,mnr,4.47
2024-03-07T05:49:00,mnr,5.06
2024-03-07T05:50:00,mnr,4.21
2024-03-07T05:51:00,mnr,4.23
2024-03-07T05:52:00,mnr,4.15
2024-03-07T05:53:00,mnr,4.21
2024-03-07T05:54:00,mnr,4.15
2024-03-07T05:55:00,mnr,4.35
2024-03-07T05:56:00,mnr,4.34
2024-03-07T05:57:00,mnr,4.30
2024-03-07T05:58:00,mnr,4.35
2024-03-07T05:59:00,mnr,4.33
2024-03-07T06:00:00,mnr,4.33
2024-03-07T06:01:00,mnr,4.69
2024-03-07T06:02:00,mnr,6.01
2024-03-07T06:03:00,mnr,7.87
2024-03-07T06:04:00,mnr,8.33
2024-03-07T06:05:00,mnr,10.18
2024-03-07T06:06:00,mnr,12.66
2024-03-07T06:07:00,mnr,15.41
2024-03-07T06:08:00,mnr,14.20
2024-03-07T06:09:00,mnr,13.46
2024-03-07T06:10:00,mnr,12.64
2024-03-07T06:11:00,mnr,12.42
2024-03-07T06:12:00,mnr,12.27
2024-03-07T06:13:00,mnr,12.37
2024-03-07T06:14:00,mnr,12.27
2024-03-07T06:15:00,mnr,12.20
2024-03-07T06:16:00,mnr,12.09
2024-03-07T06:17:00,mnr,12.04
2024-03-07T06:18:00,mnr,12.09
2024-03-07T06:19:00,mnr,12.19
2024-03-07T06:20:00,mnr,12.83
2024-03-07T06:21:00,mnr,12.90
2024-03-07T06:22:00,mnr,13.46
2024-03-07T06:23:00,mnr,14.18
2024-03-07T06:24:00,mnr,14.47
2024-03-07T06:25:00,mnr,14.50
2024-03-07T06:26:00,mnr,14.07
2024-03-07T06:27:00,mnr,14.17
2024-03-07T06:28:00,mnr,14.23
2024-03-07T06:29:00,mnr,14.15
2024-03-07T06:30:00,mnr,15.36
2024-03-07T06:31:00,mnr,14.28
2024-03-07T06:32:00,mnr,14.30
2024-03-07T06:33:00,mnr,14.26
2024-03-07T06:34:00,mnr,14.63
2024-03-07T06:35:00,mnr,13.99
2024-03-07T06:36:00,mnr,17.42
2024-03-07T06:37:00,mnr,16.33
2024-03-07T06:38:00,mnr,16.21
2024-03-07T06:39:00,mnr,15.63
2024-03-07T06:40:00,mnr,14.21
2024-03-07T06:41:00,mnr,15.07
2024-03-07T06:42:00,mnr,14.20
2024-03-07T06:43:00,mnr,14.21
2024-03-07T06:44:00,mnr,14.01
2024-03-07T06:45:00,mnr,14.07
2024-03-07T06:46:00,mnr,13.85
2024-03-07T06:47:00,mnr,13.68
2024-03-07T06:48:00,mnr,15.40
2024-03-07T06:49:00,mnr,13.90
2024-03-07T06:50:00,mnr,14.39
2024-03-07T06:51:00,mnr,13.84
2024-03-07T06:52:00,mnr,15.03
2024-03-07T06:53:00,mnr,14.14
2024-03-07T06:54:00,mnr,13.83
2024-03-07T06:55:00,mnr,13.93
2024-03-07T06:56:00,mnr,13.98
2024-03-07T06:57:00,mnr,14.26
2024-03-07T06:58:00,mnr,14.29
2024-03-07T06:59:00,mnr,14.68
2024-03-07T07:00:00,mnr,13.83
2024-03-07T07:01:00,mnr,14.18
2024-03-07T07:02:00,mnr,14.48
2024-03-07T07:03:00,mnr,13.86
2024-03-07T07:04:00,mnr,13.83
2024-03-07T07:05:00,mnr,13.75
2024-03-07T07:06:00,mnr,13.66
2024-03-07T07:07:00,mnr,13.73
2024-03-07T07:08:00,mnr,13.73
2024-03-07T07:09:00,mnr,13.69
2024-03-07T07:10:00,mnr,13.74
2024-03-07T07:11:00,mnr,14.41
2024-03-07T07:12:00,mnr,13.57
2024-03-07T07:13:00,mnr,13.59
2024-03-07T07:14:00,mnr,14.32
2024-03-07T07:15:00,mnr,13.57
2024-03-07T07:16:00,mnr,13.54
2024-03-07T07:17:00,mnr,12.74
2024-03-07T07:18:00,mnr,13.42
2024-03-07T07:19:00,mnr,12.70
2024-03-07T07:20:00,mnr,12.74
2024-03-07T07:21:00,mnr,11.53
2024-03-07T07:22:00,mnr,12.43
2024-03-07T07:23:00,mnr,12.53
2024-03-07T07:24:00,mnr,13.95
2024-03-07T07:25:00,mnr,14.04
2024-03-07T07:26:00,mnr,12.67
2024-03-07T07:27:00,mnr,12.75
2024-03-07T07:28:00,mnr,12.76
2024-03-07T07:29:00,mnr,13.49
2024-03-07T07:30:00,mnr,13.69
2024-03-07T07:31:00,mnr,13.65
2024-03-07T07:32:00,mnr,13.80
2024-03-07T07:33:00,mnr,13.63
2024-03-07T07:34:00,mnr,13.54
2024-03-07T07:35:00,mnr,13.91
2024-03-07T07:36:00,mnr,15.03
2024-03-07T07:37:00,mnr,14.34
2024-03-07T07:38:00,mnr,13.95
2024-03-07T07:39:00,mnr,13.85
2024-03-07T07:40:00,mnr,13.94
2024-03-07T07:41:00,mnr,13.79
2024-03-07T07:42:00,mnr,13.51
2024-03-07T07:43:00,mnr,13.29
2024-03-07T07:44:00,mnr,13.31
2024-03-07T07:45:00,mnr,13.89
2024-03-07T07:46:00,mnr,13.78
2024-03-07T07:47:00,mnr,13.81
2024-03-07T07:48:00,mnr,14.11
2024-03-07T07:49:00,mnr,13.75
2024-03-07T07:50:00,mnr,14.11
2024-03-07T07:51:00,mnr,14.49
2024-03-07T07:52:00,mnr,13.54
2024-03-07T07:53:00,mnr,14.09
2024-03-07T07:54:00,mnr,13.20
2024-03-07T07:55:00,mnr,13.07
2024-03-07T07:56:00,mnr,13.95
2024-03-07T07:57:00,mnr,13.10
2024-03-07T07:58:00,mnr,10.39
2024-03-07T07:59:00,mnr,13.97
2024-03-07T08:00:00,mnr,14.36
2024-03-07T08:01:00,mnr,14.70
2024-03-07T08:02:00,mnr,14.43
2024-03-07T08:03:00,mnr,14.24
2024-03-07T08:04:00,mnr,14.98
2024-03-07T08:05:00,mnr,14.74
2024-03-07T08:06:00,mnr,14.28
2024-03-07T08:07:00,mnr,15.01
2024-03-07T08:08:00,mnr,14.41
2024-03-07T08:09:00,mnr,14.76
2024-03-07T08:10:00,mnr,14.46
2024-03-07T08:11:00,mnr,10.75
2024-03-07T08:12:00,mnr,14.76
2024-03-07T08:13:00,mnr,15.85
2024-03-07T08:14:00,mnr,15.34
2024-03-07T08:15:00,mnr,14.72
2024-03-07T08:16:00,mnr,14.52
2024-03-07T08:17:00,mnr,12.03
2024-03-07T08:18:00,mnr,14.96
2024-03-07T08:19:00,mnr,14.85
2024-03-07T08:20:00,mnr,14.89
2024-03-07T08:21:00,mnr,15.42
2024-03-07T08:22:00,mnr,14.69
2024-03-07T08:23:00,mnr,15.23
2024-03-07T08:24:00,mnr,14.67
2024-03-07T08:25:00,mnr,15.83
2024-03-07T08:26:00,mnr,16.15
2024-03-07T08:27:00,mnr,16.15
2024-03-07T08:28:00,mnr,16.43
2024-03-07T08:29:00,mnr,16.44
2024-03-07T08:30:00,mnr,17.15
2024-03-07T08:31:00,mnr,17.13
2024-03-07T08:32:00,mnr,16.73
2024-03-07T08:33:00,mnr,18.06
2024-03-07T08:34:00,mnr,16.58
2024-03-07T08:35:00,mnr,17.07
2024-03-07T08:36:00,mnr,16.74
2024-03-07T08:37:00,mnr,16.96
2024-03-07T08:38:00,mnr,17.21
2024-03-07T08:39:00,mnr,17.17
2024-03-07T08:40:00,mnr,17.81
2024-03-07T08:41:00,mnr,17.63
2024-03-07T08:42:00,mnr,17.64
2024-03-07T08:43:00,mnr,18.02
2024-03-07T08:44:00,mnr,17.99
2024-03-07T08:45:00,mnr,18.10
2024-03-07T08:46:00,mnr,18.12
2024-03-07T08:47:00,mnr,17.90
2024-03-07T08:48:00,mnr,18.54
2024-03-07T08:49:00,mnr,17.86
2024-03-07T08:50:00,mnr,17.76
2024-03-07T08:51:00,mnr,17.73
2024-03-07T08:52:00,mnr,17.71
2024-03-07T08:53:00,mnr,17.84
2024-03-07T08:54:00,mnr,17.78
2024-03-07T08:55:00,mnr,27.97
2024-03-07T08:56:00,mnr,18.51
2024-03-07T08:57:00,mnr,18.50
2024-03-07T08:58:00,mnr,18.11
2024-03-07T08:59:00,mnr,18.94
2024-03-07T09:00:00,mnr,18.24
2024-03-07T09:01:00,mnr,18.39
2024-03-07T09:02:00,mnr,18.00
2024-03-07T09:03:00,mnr,18.23
2024-03-07T09:04:00,mnr,18.02
2024-03-07T09:05:00,mnr,18.00
2024-03-07T09:06:00,mnr,18.03
2024-03-07T09:07:00,mnr,17.95
2024-03-07T09:08:00,mnr,18.03
2024-03-07T09:09:00,mnr,17.97
2024-03-07T09:10:00,mnr,17.43
2024-03-07T09:11:00,mnr,17.75
2024-03-07T09:12:00,mnr,17.71
2024-03-07T09:13:00,mnr,18.19
2024-03-07T09:14:00,mnr,19.48
2024-03-07T09:15:00,mnr,17.81
2024-03-07T09:16:00,mnr,17.71
2024-03-07T09:17:00,mnr,17.78
2024-03-07T09:18:00,mnr,17.93
2024-03-07T09:19:00,mnr,18.17
2024-03-07T09:20:00,mnr,17.97
2024-03-07T09:21:00,mnr,18.62
2024-03-07T09:22:00,mnr,18.09
2024-03-07T09:23:00,mnr,19.16
2024-03-07T09:24:00,mnr,19.23
2024-03-07T09:25:00,mnr,19.20
2024-03-07T09:26:00,mnr,17.94
2024-03-07T09:27:00,mnr,17.82
2024-03-07T09:28:00,mnr,17.97
2024-03-07T09:29:00,mnr,28.43
2024-03-07T09:30:00,mnr,18.16
2024-03-07T09:31:00,mnr,18.63
2024-03-07T09:32:00,mnr,18.80
2024-03-07T09:33:00,mnr,19.11
2024-03-07T09:34:00,mnr,18.07
2024-03-07T09:35:00,mnr,18.14
2024-03-07T09:36:00,mnr,19.37
2024-03-07T09:37:00,mnr,18.74
2024-03-07T09:38:00,mnr,18.57
2024-03-07T09:39:00,mnr,18.93
2024-03-07T09:40:00,mnr,19.95
2024-03-07T09:41:00,mnr,18.17
2024-03-07T09:42:00,mnr,20.29
2024-03-07T09:43:00,mnr,20.07
2024-03-07T09:44:00,mnr,17.82
2024-03-07T09:45:00,mnr,19.76
2024-03-07T09:46:00,mnr,19.58
2024-03-07T09:47:00,mnr,18.52
2024-03-07T09:48:00,mnr,18.65
2024-03-07T09:49:00,mnr,18.76
2024-03-07T09:50:00,mnr,18.54
2024-03-07T09:51:00,mnr,18.58
2024-03-07T09:52:00,mnr,19.05
2024-03-07T09:53:00,mnr,19.12
2024-03-07T09:54:00,mnr,18.50
2024-03-07T09:55:00,mnr,18.47
2024-03-07T09:56:00,mnr,18.46
2024-03-07T09:57:00,mnr,18.34
2024-03-07T09:58:00,mnr,18.31
2024-03-07T09:59:00,mnr,18.43
2024-03-07T10:00:00,mnr,18.84
2024-03-07T10:01:00,mnr,19.29
2024-03-07T10:02:00,mnr,18.69
2024-03-07T10:03:00,mnr,18.69
2024-03-07T10:04:00,mnr,18.69
2024-03-07T10:05:00,mnr,19.36
2024-03-07T10:06:00,mnr,19.14
2024-03-07T10:07:00,mnr,19.65
2024-03-07T10:08:00,mnr,19.36
2024-03-07T10:09:00,mnr,18.65
2024-03-07T10:10:00,mnr,18.97
2024-03-07T10:11:00,mnr,18.97
2024-03-07T10:12:00,mnr,19.62
2024-03-07T10:13:00,mnr,19.66
2024-03-07T10:14:00,mnr,19.09
2024-03-07T10:15:00,mnr,19.40
2024-03-07T10:16:00,mnr,18.92
2024-03-07T10:17:00,mnr,18.97
2024-03-07T10:18:00,mnr,19.28
2024-03-07T10:19:00,mnr,19.25
2024-03-07T10:20:00,mnr,18.96
2024-03-07T10:21:00,mnr,19.32
2024-03-07T10:22:00,mnr,19.02
2024-03-07T10:23:00,mnr,17.09
2024-03-07T10:24:00,mnr,17.20
2024-03-07T10:25:00,mnr,17.12
2024-03-07T10:26:00,mnr,16.76
2024-03-07T10:27:00,mnr,27.98
2024-03-07T10:28:00,mnr,17.55
2024-03-07T10:29:00,mnr,17.43
2024-03-07T10:30:00,mnr,18.61
2024-03-07T10:31:00,mnr,18.65
2024-03-07T10:32:00,mnr,18.82
2024-03-07T10:33:00,mnr,18.59
2024-03-07T10:34:00,mnr,19.19
2024-03-07T10:35:00,mnr,18.89
2024-03-07T10:36:00,mnr,21.50
2024-03-07T10:37:00,mnr,19.73
2024-03-07T10:38:00,mnr,18.40
2024-03-07T10:39:00,mnr,18.66
2024-03-07T10:40:00,mnr,16.84
2024-03-07T10:41:00,mnr,17.47
2024-03-07T10:42:00,mnr,16.99
2024-03-07T10:43:00,mnr,16.64
2024-03-07T10:44:00,mnr,16.20
2024-03-07T10:45:00,mnr,16.53
2024-03-07T10:46:00,mnr,16.36
2024-03-07T10:47:00,mnr,18.28
2024-03-07T10:48:00,mnr,16.29
2024-03-07T10:49:00,mnr,16.01
2024-03-07T10:50:00,mnr,16.14
2024-03-07T10:51:00,mnr,16.64
2024-03-07T10:52:00,mnr,17.47
2024-03-07T10:53:00,mnr,17.67
2024-03-07T10:54:00,mnr,18.10
2024-03-07T10:55:00,mnr,18.17
2024-03-07T10:56:00,mnr,18.23
2024-03-07T10:57:00,mnr,18.42
2024-03-07T10:58:00,mnr,18.31
2024-03-07T10:59:00,mnr,18.62
2024-03-07T11:00:00,mnr,18.57
2024-03-07T11:01:00,mnr,28.86
2024-03-07T11:02:00,mnr,18.94
2024-03-07T11:03:00,mnr,18.89
2024-03-07T11:04:00,mnr,18.04
2024-03-07T11:05:00,mnr,18.38
2024-03-07T11:06:00,mnr,20.71
2024-03-07T11:07:00,mnr,19.86
2024-03-07T11:08:00,mnr,16.52
2024-03-07T11:09:00,mnr,19.83
2024-03-07T11:10:00,mnr,20.29
2024-03-07T11:11:00,mnr,20.36
2024-03-07T11:12:00,mnr,16.72
2024-03-07T11:13:00,mnr,21.43
2024-03-07T11:14:00,mnr,21.02
2024-03-07T11:15:00,mnr,20.69
2024-03-07T11:16:00,mnr,20.27
2024-03-07T11:17:00,mnr,21.73
2024-03-07T11:18:00,mnr,20.52
2024-03-07T11:19:00,mnr,20.15
2024-03-07T11:20:00,mnr,20.06
2024-03-07T11:21:00,mnr,20.09
2024-03-07T11:22:00,mnr,20.15
2024-03-07T11:23:00,mnr,20.11
2024-03-07T11:24:00,mnr,20.01
2024-03-07T11:25:00,mnr,23.29
2024-03-07T11:26:00,mnr,20.03
2024-03-07T11:27:00,mnr,19.92
2024-03-07T11:28:00,mnr,19.94
2024-03-07T11:29:00,mnr,19.93
2024-03-07T11:30:00,mnr,20.51
2024-03-07T11:31:00,mnr,20.00
2024-03-07T11:32:00,mnr,21.26
2024-03-07T11:33:00,mnr,20.36
2024-03-07T11:34:00,mnr,19.96
2024-03-07T11:35:00,mnr,20.25
2024-03-07T11:36:00,mnr,19.59
2024-03-07T11:37:00,mnr,19.45
2024-03-07T11:38:00,mnr,19.92
2024-03-07T11:39:00,mnr,20.28
2024-03-07T11:40:00,mnr,19.31
2024-03-07T11:41:00,mnr,18.97
2024-03-07T11:42:00,mnr,18.75
2024-03-07T11:43:00,mnr,19.39
2024-03-07T11:44:00,mnr,18.88
2024-03-07T11:45:00,mnr,19.09
2024-03-07T11:46:00,mnr,19.53
2024-03-07T11:47:00,mnr,19.02
2024-03-07T11:48:00,mnr,19.41
2024-03-07T11:49:00,mnr,19.38
2024-03-07T11:50:00,mnr,19.52
2024-03-07T11:51:00,mnr,19.11
2024-03-07T11:52:00,mnr,19.17
2024-03-07T11:53:00,mnr,19.75
2024-03-07T11:54:00,mnr,18.99
2024-03-07T11:55:00,mnr,19.48
2024-03-07T11:56:00,mnr,20.24
2024-03-07T11:57:00,mnr,19.42
2024-03-07T11:58:00,mnr,19.44
2024-03-07T11:59:00,mnr,19.93
2024-03-07T12:00:00,mnr,19.28
2024-03-07T12:01:00,mnr,21.11
2024-03-07T12:02:00,mnr,20.70
2024-03-07T12:03:00,mnr,20.81
2024-03-07T12:04:00,mnr,19.52
2024-03-07T12:05:00,mnr,19.58
2024-03-07T12:06:00,mnr,19.37
2024-03-07T12:07:00,mnr,19.40
2024-03-07T12:08:00,mnr,19.49
2024-03-07T12:09:00,mnr,30.40
2024-03-07T12:10:00,mnr,19.34
2024-03-07T12:11:00,mnr,19.23
2024-03-07T12:12:00,mnr,20.11
2024-03-07T12:13:00,mnr,19.72
2024-03-07T12:14:00,mnr,20.09
2024-03-07T12:15:00,mnr,21.64
2024-03-07T12:16:00,mnr,21.52
2024-03-07T12:17:00,mnr,19.47
2024-03-07T12:18:00,mnr,19.05
2024-03-07T12:19:00,mnr,19.09
2024-03-07T12:20:00,mnr,30.09
2024-03-07T12:21:00,mnr,20.31
2024-03-07T12:22:00,mnr,20.14
2024-03-07T12:23:00,mnr,19.22
2024-03-07T12:24:00,mnr,19.88
2024-03-07T12:25:00,mnr,19.20
2024-03-07T12:26:00,mnr,19.12
2024-03-07T12:27:00,mnr,20.87
2024-03-07T12:28:00,mnr,18.73
2024-03-07T12:29:00,mnr,19.07
2024-03-07T12:30:00,mnr,18.46
2024-03-07T12:31:00,mnr,19.84
2024-03-07T12:32:00,mnr,18.81
2024-03-07T12:33:00,mnr,17.30
2024-03-07T12:34:00,mnr,17.14
2024-03-07T12:35:00,mnr,17.30
2024-03-07T12:36:00,mnr,18.83
2024-03-07T12:37:00,mnr,20.77
2024-03-07T12:38:00,mnr,19.76
2024-03-07T12:39:00,mnr,20.15
2024-03-07T12:40:00,mnr,20.73
2024-03-07T12:41:00,mnr,20.33
2024-03-07T12:42:00,mnr,20.56
2024-03-07T12:43:00,mnr,21.86
2024-03-07T12:44:00,mnr,18.41
2024-03-07T12:45:00,mnr,20.09
2024-03-07T12:46:00,mnr,20.33
2024-03-07T12:47:00,mnr,19.67
2024-03-07T12:48:00,mnr,22.35
2024-03-07T12:49:00,mnr,21.39
2024-03-07T12:50:00,mnr,21.42
2024-03-07T12:51:00,mnr,22.33
2024-03-07T12:52:00,mnr,19.91
2024-03-07T12:53:00,mnr,19.77
2024-03-07T12:54:00,mnr,20.74
2024-03-07T12:55:00,mnr,20.82
2024-03-07T12:56:00,mnr,21.57
2024-03-07T12:57:00,mnr,19.78
2024-03-07T12:58:00,mnr,20.66
2024-03-07T12:59:00,mnr,19.45
2024-03-07T13:00:00,mnr,20.83
2024-03-07T13:01:00,mnr,19.59
2024-03-07T13:02:00,mnr,16.75
2024-03-07T13:03:00,mnr,21.05
2024-03-07T13:04:00,mnr,20.77
2024-03-07T13:05:00,mnr,21.02
2024-03-07T13:06:00,mnr,21.82
2024-03-07T13:07:00,mnr,22.67
2024-03-07T13:08:00,mnr,21.45
2024-03-07T13:09:00,mnr,21.56
2024-03-07T13:10:00,mnr,20.61
2024-03-07T13:11:00,mnr,20.61
2024-03-07T13:12:00,mnr,20.72
2024-03-07T13:13:00,mnr,20.63
2024-03-07T13:14:00,mnr,20.85
2024-03-07T13:15:00,mnr,21.50
2024-03-07T13:16:00,mnr,21.11
2024-03-07T13:17:00,mnr,20.72
2024-03-07T13:18:00,mnr,20.87
2024-03-07T13:19:00,mnr,20.53
2024-03-07T13:20:00,mnr,20.55
2024-03-07T13:21:00,mnr,20.54
2024-03-07T13:22:00,mnr,20.80
2024-03-07T13:23:00,mnr,20.49
2024-03-07T13:24:00,mnr,20.44
2024-03-07T13:25:00,mnr,20.41
2024-03-07T13:26:00,mnr,20.96
2024-03-07T13:27:00,mnr,20.43
2024-03-07T13:28:00,mnr,20.16
2024-03-07T13:29:00,mnr,20.04
2024-03-07T13:30:00,mnr,20.02